GW2489 Weather Reports


time (UTC)temp
C
wind
direction
speed
KPH
gust
KPH
rain 1hr
cm
rain 24hr
cm
rain mn
cm
humidity
%
barometer
mb
20260505125037 0 0 0.0 4.8 0.05 0.51 0.20 92 1014.3
20260505124550 0 0 0.0 6.4 0.05 0.51 0.20 92 1014.1
20260505124040 0 0 0.0 6.4 0.05 0.51 0.20 92 1014.1
20260505123538 0 0 0.0 4.8 0.08 0.51 0.20 92 1014.1
20260505123055 0 341 0.0 3.2 0.08 0.51 0.20 92 1013.9
20260505122538 1 0 0.0 4.8 0.05 0.48 0.18 92 1014.0
20260505122038 1 0 0.0 4.8 0.08 0.48 0.18 92 1014.0
20260505121550 1 329 0.0 4.8 0.08 0.48 0.18 92 1014.1
20260505121038 1 0 0.0 6.4 0.08 0.48 0.18 91 1014.0
20260505120539 1 0 0.0 6.4 0.05 0.46 0.15 91 1013.8
20260505120110 1 24 0.0 6.4 0.08 0.46 0.15 91 1013.9
20260505115537 1 0 0.0 3.2 0.08 0.46 0.15 91 1013.7
20260505115036 1 0 0.0 4.8 0.08 0.46 0.15 91 1013.9
20260505114548 1 0 0.0 4.8 0.08 0.46 0.15 91 1013.7
20260505114041 1 0 0.0 4.8 0.08 0.46 0.15 91 1013.8
20260505113542 1 0 0.0 3.2 0.05 0.43 0.13 91 1013.9
20260505113050 1 0 0.0 4.8 0.05 0.43 0.13 90 1013.9
20260505112537 2 0 0.0 4.8 0.05 0.43 0.13 90 1013.7
20260505112037 2 5 1.6 14.5 0.05 0.41 0.10 90 1013.7
20260505111547 2 360 1.6 14.5 0.05 0.41 0.10 90 1013.6
20260505111038 2 360 1.6 14.5 0.05 0.41 0.10 89 1013.6
20260505110538 2 5 1.6 14.5 0.03 0.38 0.08 89 1013.6
20260505110107 3 32 3.2 12.9 0.05 0.38 0.08 89 1013.5
20260505102036 3 0 1.6 16.1 0.05 0.36 0.05 90 1012.5
20260505101547 3 0 1.6 12.9 0.05 0.36 0.05 90 1012.5
20260505101034 3 41 0.0 9.7 0.05 0.36 0.05 90 1012.6
20260505100534 3 10 0.0 12.9 0.05 0.36 0.05 90 1012.5
20260505100043 3 5 0.0 12.9 0.03 0.33 0.03 90 1012.5
20260505095534 3 259 0.0 8.0 0.03 0.33 0.03 90 1012.2
20260505095035 4 5 0.0 8.0 0.03 0.33 0.03 91 1012.3
20260505094543 4 360 1.6 8.0 0.03 0.33 0.03 91 1012.3
20260505094034 4 17 0.0 8.0 0.03 0.33 0.03 91 1012.2
20260505093534 4 13 0.0 11.3 0.03 0.33 0.03 91 1012.1
20260505093042 4 0 0.0 11.3 0.00 0.30 0.00 90 1012.2
20260505092534 5 352 1.6 9.7 0.00 0.30 0.00 91 1012.2
20260505092035 5 352 1.6 12.9 0.00 0.30 0.00 91 1012.2
20260505091554 5 5 1.6 16.1 0.00 0.30 0.00 90 1012.1
20260505091040 5 338 0.0 17.7 0.00 0.30 0.00 90 1011.9
20260505090533 5 5 3.2 29.0 0.00 0.30 0.00 90 1011.9
20260505090041 5 336 4.8 29.0 0.00 0.30 0.00 90 1011.8
20260505085534 5 0 0.0 16.1 0.00 0.30 0.00 90 1011.8
20260505085037 5 338 3.2 16.1 0.00 0.30 0.00 90 1012.0
20260505084556 5 0 1.6 8.0 0.00 0.30 0.00 90 1012.0
20260505084035 5 0 0.0 9.7 0.00 0.30 0.00 89 1011.9
20260505083538 5 0 0.0 9.7 0.00 0.30 0.00 89 1011.9
20260505083055 5 338 0.0 8.0 0.00 0.30 0.00 88 1012.0
20260505082534 5 346 0.0 6.4 0.00 0.30 0.00 88 1012.0
20260505082037 5 0 1.6 9.7 0.00 0.30 0.00 88 1012.0
20260505081542 5 0 1.6 9.7 0.00 0.30 0.00 87 1012.2
20260505081035 6 351 1.6 9.7 0.00 0.30 0.00 87 1012.3
20260505080533 6 341 0.0 9.7 0.00 0.30 0.00 86 1012.2
20260505080041 7 0 1.6 9.7 0.00 0.30 0.00 86 1012.2
20260505075538 7 0 0.0 8.0 0.00 0.30 0.00 87 1011.9
20260505075036 7 327 0.0 8.0 0.00 0.30 0.00 87 1012.0
20260505074540 7 0 0.0 1.6 0.00 0.30 0.00 87 1012.1
20260505074036 7 252 0.0 0.0 0.00 0.30 0.00 87 1012.1
20260505073537 7 0 0.0 0.0 0.00 0.30 0.00 87 1012.1
20260505073049 7 0 0.0 0.0 0.00 0.30 0.00 87 1012.1
20260505072539 7 0 0.0 0.0 0.00 0.30 0.00 87 1011.9
20260505072038 7 0 0.0 0.0 0.00 0.30 0.00 88 1011.8
20260505071542 7 0 0.0 0.0 0.00 0.30 0.00 88 1011.8
20260505071038 7 0 0.0 1.6 0.00 0.30 0.00 88 1012.0
20260505070538 7 0 0.0 3.2 0.00 0.30 0.00 88 1011.9
20260505070050 7 0 0.0 3.2 0.00 0.30 0.00 88 1011.8
20260505065538 7 0 0.0 0.0 0.00 0.30 0.00 88 1011.8
20260505065036 7 0 0.0 3.2 0.00 0.30 0.00 88 1011.7
20260505064603 7 0 0.0 3.2 0.00 0.30 0.00 88 1011.9
20260505064037 7 0 0.0 3.2 0.00 0.30 0.00 88 1011.9
20260505063535 7 0 0.0 0.0 0.00 0.30 0.00 88 1011.9
20260505063048 7 0 0.0 0.0 0.00 0.30 0.00 88 1011.9
20260505062537 7 0 0.0 1.6 0.00 0.30 0.00 88 1011.9
20260505062038 7 0 0.0 1.6 0.00 0.30 0.00 88 1011.8
20260505061539 7 0 0.0 0.0 0.00 0.30 0.00 89 1011.9
20260505061041 7 0 0.0 0.0 0.00 0.30 0.00 89 1011.8
20260505060537 7 0 0.0 1.6 0.00 0.30 0.00 89 1011.9
20260505060038 7 0 0.0 1.6 0.00 0.30 0.00 89 1011.7
20260505055540 7 0 0.0 1.6 0.00 0.30 0.30 89 1011.8
20260505055038 7 0 0.0 0.0 0.00 0.30 0.30 88 1011.9
20260505054550 7 0 0.0 0.0 0.00 0.30 0.30 88 1012.0
20260505054037 6 0 0.0 0.0 0.00 0.30 0.30 88 1012.0
20260505053538 6 0 0.0 0.0 0.00 0.30 0.30 88 1011.5
20260505053043 6 0 0.0 0.0 0.00 0.30 0.30 87 1011.5
20260505052541 6 0 0.0 0.0 0.00 0.30 0.30 88 1011.5
20260505052037 6 0 0.0 0.0 0.00 0.30 0.30 87 1011.5
20260505051549 6 0 0.0 0.0 0.00 0.30 0.30 87 1011.5
20260505051036 6 0 0.0 0.0 0.00 0.30 0.30 87 1011.6
20260505050536 6 0 0.0 0.0 0.03 0.30 0.30 87 1011.7
20260505041542 7 0 0.0 0.0 0.13 0.30 0.30 86 1012.1
20260505041038 7 0 0.0 0.0 0.13 0.30 0.30 86 1012.2
20260505040541 7 0 0.0 0.0 0.13 0.28 0.28 86 1012.3
20260505040059 7 0 0.0 0.0 0.15 0.28 0.28 86 1012.1
20260505035537 7 0 0.0 0.0 0.20 0.28 0.28 86 1012.1
20260505035036 7 0 0.0 0.0 0.25 0.28 0.28 85 1011.9
20260505034605 7 0 0.0 1.6 0.28 0.28 0.28 84 1012.1
20260505034037 8 0 0.0 1.6 0.25 0.25 0.25 84 1012.0
20260505033538 8 0 0.0 1.6 0.23 0.23 0.23 83 1012.1
20260505033045 8 0 0.0 3.2 0.23 0.23 0.23 82 1012.2
20260505032538 8 0 0.0 4.8 0.20 0.20 0.20 82 1012.1
20260505032037 8 0 0.0 4.8 0.20 0.20 0.20 82 1012.1
20260505031545 8 0 0.0 4.8 0.18 0.18 0.18 82 1012.0
20260505031038 8 0 0.0 17.7 0.18 0.18 0.18 81 1011.8
20260505030541 8 0 3.2 17.7 0.15 0.15 0.15 80 1012.0
20260505030047 8 312 1.6 17.7 0.13 0.13 0.13 83 1011.7
20260505025538 8 0 3.2 17.7 0.08 0.08 0.08 82 1011.6
20260505025038 9 0 0.0 8.0 0.03 0.03 0.03 81 1011.3
20260505024559 9 0 0.0 8.0 0.00 0.00 0.00 79 1011.3
20260505024037 9 340 0.0 8.0 0.00 0.00 0.00 77 1011.1
20260505023539 10 337 1.6 8.0 0.00 0.00 0.00 75 1011.1
20260505023048 10 348 0.0 4.8 0.00 0.00 0.00 73 1010.9
20260505022537 10 344 0.0 6.4 0.00 0.00 0.00 73 1010.8
20260505022037 10 319 0.0 6.4 0.00 0.00 0.00 73 1010.8
20260505021545 10 360 0.0 6.4 0.00 0.00 0.00 72 1010.7
20260505021037 10 343 0.0 6.4 0.00 0.00 0.00 73 1010.8
20260505020538 10 352 0.0 6.4 0.00 0.00 0.00 72 1010.7
20260505020103 10 0 0.0 4.8 0.00 0.00 0.00 72 1010.7
20260505015537 10 0 0.0 9.7 0.00 0.00 0.00 71 1010.9
20260505015037 10 360 1.6 12.9 0.00 0.00 0.00 69 1010.9
20260505014544 10 0 1.6 17.7 0.00 0.00 0.00 67 1010.9
20260505014037 11 360 1.6 17.7 0.00 0.00 0.00 65 1010.7
20260505013537 12 352 1.6 9.7 0.00 0.00 0.00 60 1010.4
20260505013043 12 0 0.0 1.6 0.00 0.00 0.00 53 1010.4
20260505012540 13 0 0.0 3.2 0.00 0.00 0.00 53 1010.6
20260505012038 13 0 0.0 4.8 0.00 0.00 0.00 53 1010.6
20260505011540 13 0 0.0 6.4 0.00 0.00 0.00 54 1010.6
20260505011033 13 0 0.0 6.4 0.00 0.00 0.00 52 1010.6
20260505010535 13 0 0.0 4.8 0.00 0.00 0.00 50 1010.6
20260505010057 13 0 0.0 4.8 0.00 0.00 0.00 49 1010.4
20260505005536 13 0 0.0 4.8 0.00 0.00 0.00 48 1010.3
20260505005034 13 0 0.0 1.6 0.00 0.00 0.00 48 1010.1
20260505004601 13 0 0.0 1.6 0.00 0.00 0.00 47 1010.2
20260505004036 14 0 0.0 1.6 0.00 0.00 0.00 47 1010.2
20260505003537 14 0 0.0 1.6 0.00 0.00 0.00 46 1010.2
20260505003052 14 0 0.0 1.6 0.00 0.00 0.00 46 1010.2
20260505002533 14 0 0.0 1.6 0.00 0.00 0.00 45 1009.8
20260505002037 14 0 0.0 1.6 0.00 0.00 0.00 45 1010.0
20260505001545 14 0 0.0 1.6 0.00 0.00 0.00 44 1009.7
20260505001037 14 0 0.0 4.8 0.00 0.00 0.00 44 1009.7
20260505000535 14 0 0.0 4.8 0.00 0.00 0.00 44 1009.7
20260505000044 14 329 0.0 3.2 0.00 0.00 0.00 44 1009.6
20260504235535 14 313 0.0 6.4 0.00 0.00 0.00 44 1009.5
20260504235034 14 0 0.0 6.4 0.00 0.00 0.00 45 1009.5
20260504234541 14 0 1.6 9.7 0.00 0.00 0.00 45 1009.6
20260504234035 14 22 0.0 9.7 0.00 0.00 0.00 46 1009.4
20260504233533 15 0 0.0 4.8 0.00 0.00 0.00 45 1009.4
20260504233039 15 0 0.0 4.8 0.00 0.00 0.00 41 1009.3
20260504232536 15 20 0.0 4.8 0.00 0.00 0.00 43 1009.4
20260504232035 15 0 0.0 6.4 0.00 0.00 0.00 43 1009.4
20260504231618 15 0 1.6 9.7 0.00 0.00 0.00 44 1009.5
20260504231034 15 360 0.0 16.1 0.00 0.00 0.00 45 1009.5
20260504230534 14 0 0.0 16.1 0.00 0.00 0.00 45 1009.4
20260504230045 15 0 0.0 4.8 0.00 0.00 0.00 45 1009.3
20260504225534 15 342 0.0 8.0 0.00 0.00 0.00 43 1009.4
20260504225035 14 0 0.0 8.0 0.00 0.00 0.00 43 1009.5
20260504224544 14 0 0.0 8.0 0.00 0.00 0.00 49 1009.7
20260504224037 14 0 0.0 9.7 0.00 0.00 0.00 49 1009.8
20260504223534 14 0 0.0 22.5 0.00 0.00 0.00 47 1009.8
20260504223040 15 0 3.2 22.5 0.00 0.00 0.00 42 1009.8
20260504222533 15 0 0.0 4.8 0.00 0.00 0.00 40 1009.7
20260504222039 15 335 0.0 4.8 0.00 0.00 0.00 40 1009.7
20260504221619 15 0 0.0 11.3 0.00 0.00 0.00 40 1009.5
20260504221037 15 0 0.0 11.3 0.00 0.00 0.00 40 1009.3
20260504220537 15 9 0.0 14.5 0.00 0.00 0.00 40 1009.3
20260504220049 15 36 0.0 14.5 0.00 0.00 0.00 40 1009.0
20260504215541 15 21 3.2 30.6 0.00 0.00 0.00 39 1008.8
20260504215037 16 352 6.4 30.6 0.00 0.00 0.00 38 1008.5
20260504214547 16 24 1.6 24.1 0.00 0.00 0.00 36 1008.5
20260504214037 16 342 4.8 35.4 0.00 0.00 0.00 35 1008.4
20260504213538 17 332 9.7 35.4 0.00 0.00 0.00 34 1008.2
20260504213051 17 14 4.8 29.0 0.00 0.00 0.00 34 1008.2
20260504212538 17 32 3.2 33.8 0.00 0.00 0.00 34 1008.3
20260504212039 17 36 9.7 33.8 0.00 0.00 0.00 32 1008.3
20260504211549 18 0 3.2 29.0 0.00 0.00 0.00 29 1008.5
20260504211037 18 0 0.0 4.8 0.00 0.00 0.00 29 1008.2
20260504210541 18 0 0.0 4.8 0.00 0.00 0.00 28 1008.2
20260504210050 18 0 0.0 4.8 0.00 0.00 0.00 29 1008.2
20260504205538 18 0 0.0 8.0 0.00 0.00 0.00 29 1008.3
20260504205038 17 0 0.0 12.9 0.00 0.00 0.00 33 1008.3
20260504204549 17 0 1.6 12.9 0.00 0.00 0.00 33 1008.4
20260504204040 17 150 1.6 9.7 0.00 0.00 0.00 35 1008.4
20260504203537 17 178 1.6 11.3 0.00 0.00 0.00 35 1008.5
20260504203050 17 173 1.6 14.5 0.00 0.00 0.00 35 1008.5
20260504202538 17 186 3.2 19.3 0.00 0.00 0.00 37 1008.7
20260504202035 17 185 3.2 19.3 0.00 0.00 0.00 37 1008.8
20260504201547 17 214 1.6 29.0 0.00 0.00 0.00 38 1008.9
20260504201040 16 0 1.6 29.0 0.00 0.00 0.00 34 1008.9
20260504200536 16 0 1.6 20.9 0.00 0.00 0.00 45 1008.9
20260504200049 15 151 3.2 35.4 0.00 0.00 0.00 47 1008.9
20260504195537 15 126 12.9 40.2 0.00 0.00 0.00 45 1008.9
20260504195037 14 132 19.3 40.2 0.00 0.00 0.00 46 1008.7
20260504194553 13 153 24.1 41.8 0.00 0.00 0.00 54 1008.7
20260504194040 13 174 22.5 41.8 0.00 0.00 0.00 49 1008.7
20260504193537 14 167 14.5 46.7 0.00 0.00 0.00 46 1008.8
20260504193049 16 190 24.1 46.7 0.00 0.00 0.00 32 1008.7
20260504192538 17 170 19.3 38.6 0.00 0.00 0.00 28 1008.7
20260504192037 19 196 4.8 22.5 0.00 0.00 0.00 23 1008.8
20260504191610 20 0 0.0 12.9 0.00 0.00 0.00 24 1008.7
20260504191037 20 0 1.6 14.5 0.00 0.00 0.00 22 1008.1
20260504190536 20 303 1.6 14.5 0.00 0.00 0.00 22 1008.0
20260504190047 21 360 1.6 17.7 0.00 0.00 0.00 21 1008.0
20260504185537 21 345 3.2 35.4 0.00 0.00 0.00 21 1007.9
20260504185038 21 340 4.8 35.4 0.00 0.00 0.00 21 1007.8
20260504184555 22 331 4.8 19.3 0.00 0.00 0.00 20 1007.8
20260504184038 22 311 1.6 19.3 0.00 0.00 0.00 18 1007.9
20260504183536 22 331 0.0 17.7 0.00 0.00 0.00 19 1008.0
20260504183049 21 0 0.0 17.7 0.00 0.00 0.00 19 1008.0
20260504182537 21 0 1.6 14.5 0.00 0.00 0.00 20 1008.1
20260504182035 21 334 0.0 16.1 0.00 0.00 0.00 21 1008.1
20260504181544 21 0 1.6 16.1 0.00 0.00 0.00 21 1008.2
20260504181037 21 324 0.0 29.0 0.00 0.00 0.00 23 1008.2
20260504180536 20 312 1.6 29.0 0.00 0.00 0.00 22 1008.3
20260504180045 20 322 4.8 22.5 0.00 0.00 0.00 21 1008.4
20260504175536 20 0 3.2 24.1 0.00 0.00 0.00 23 1008.5
20260504175035 20 292 1.6 24.1 0.00 0.00 0.00 23 1008.4
20260504174552 20 322 3.2 25.7 0.00 0.00 0.00 24 1008.7
20260504174036 20 307 1.6 25.7 0.00 0.00 0.00 26 1008.9
20260504173537 19 321 6.4 30.6 0.00 0.00 0.00 25 1009.0
20260504173044 19 346 3.2 30.6 0.00 0.00 0.00 26 1009.3
20260504172537 19 309 9.7 27.4 0.00 0.00 0.00 25 1009.1
20260504172039 19 323 4.8 29.0 0.00 0.00 0.00 25 1009.3
20260504171552 19 0 3.2 29.0 0.00 0.00 0.00 25 1009.4
20260504171037 19 313 4.8 29.0 0.00 0.00 0.00 26 1009.5
20260504170538 19 309 6.4 22.5 0.00 0.00 0.00 25 1009.4
20260504151038 17 287 3.2 22.5 0.00 0.00 0.00 27 1010.1
20260504150539 17 303 3.2 22.5 0.00 0.00 0.00 27 1010.2
20260504141038 16 263 0.0 8.0 0.00 0.00 0.00 26 1010.0
20260504140538 16 298 0.0 11.3 0.00 0.00 0.00 26 1010.1